SKRYDSTRUP(DAN-AFB) current weather conditions

sailwx.info

Wind from 210 at 9 knots

Air temperature 5.0° C
Visibility: greater than 5.4 NM
Dewpoint 4.0° C
Present weather: Light rain.

Last reported at 2019-Dec-14 11:50 UTC.
Time now 2019-Dec-14 12:38 UTC

Location: N 55°14' E 009°16'.
View on Google Maps.

See reports from other nearby stations

  
Tides and Currents Weather Stations Pressure Air Temp Water Temp Dewpoint Dewpoint Depression Visibility Wind Speed Wind Dir Waves Ship Positions
date/time (UTC)wind fromknots sea level pressurealtimeterstation pressurevisibilityair tempwater tempwave heightnotes
2019-Dec-14 11:50 210 9 5.4 5.0 Light rain.
2019-Dec-14 11:20 200 12 5.4 5.0 Light rain.
2019-Dec-14 10:50 200 11 5.4 4.0 Light rain.
2019-Dec-14 10:20 220 11 4.3 4.0 Light rain.
2019-Dec-14 10:13 220 13 4.3 4.0 Light rain.
2019-Dec-14 09:50 180 13 3.8 4.0 Drizzle rain.
2019-Dec-14 09:20 180 12 2.7 4.0 Light rain drizzle.
2019-Dec-14 08:50 180 12 1.9 4.0 Mist.
2019-Dec-14 08:20 180 12 1.3 4.0 Light rain drizzle. Mist.
2019-Dec-14 07:50 170 9 1.3 4.0 Light rain drizzle. Mist.
2019-Dec-14 07:20 170 8 1.3 3.0 Mist.
2019-Dec-14 06:50 160 7 1.3 3.0 Mist.
2019-Dec-14 06:20 170 7 1.3 3.0 Light drizzle. Mist.
2019-Dec-14 06:18 170 7 1.3 3.0 Light drizzle. Mist.
2019-Dec-14 05:50 160 6 1.1 2.0 Light rain drizzle. Mist.
2019-Dec-14 05:20 150 6 1.1 1.0 Light drizzle. Mist.
2019-Dec-14 04:50 150 7 1.1 1.0 Light drizzle. Mist.
2019-Dec-14 04:20 140 6 1.1 1.0 Light drizzle. Mist.
2019-Dec-14 03:50 140 7 1.1-0.0 Light rain drizzle. Mist.
2019-Dec-14 03:20 140 6 1.1-0.0 Light rain drizzle. Mist.
2019-Dec-14 02:50 140 6 1.1-0.0 Light rain drizzle. Mist.
2019-Dec-14 02:20 140 6 1.1-0.0 Light rain drizzle. Mist.
2019-Dec-14 01:50 140 6 1.1-0.0 Light rain drizzle. Mist.
2019-Dec-14 01:20 140 6 1.1-0.0 Light rain drizzle. Mist.
2019-Dec-14 00:50 140 6 1.6-0.0 Light rain drizzle. Mist.
2019-Dec-14 00:20 130 6 1.6-0.0 Light rain drizzle. Mist.
2019-Dec-13 23:50 130 6 2.2 1.0 Light rain drizzle. Mist.
2019-Dec-13 23:20 140 6 4.9 1.0 Light rain drizzle.
2019-Dec-13 22:50 150 6 4.9 1.0 Light rain.
2019-Dec-13 22:20 150 6 4.9 2.0 Light rain.
2019-Dec-13 21:50 170 6 4.9 2.0 Light rain.
2019-Dec-13 21:20 140 6 5.4 2.0 Light rain.
2019-Dec-13 20:50 140 7 5.4 3.0
2019-Dec-13 20:20 130 7 5.4 3.0
2019-Dec-13 19:50 140 8 5.4 3.0
2019-Dec-13 19:20 140 8 5.4 3.0
2019-Dec-13 18:50 120 8 5.4 3.0
2019-Dec-13 18:20 150 6 5.4 3.0
2019-Dec-13 17:50 130 6 5.4 4.0
2019-Dec-13 17:20 130 11 5.4 4.0
2019-Dec-13 16:50 130 13 5.4 4.0
2019-Dec-13 16:20 130 14 5.4 3.0
2019-Dec-13 15:50 130 15 gusting 26 5.4 3.0
2019-Dec-13 15:20 120 12 5.4 3.0
2019-Dec-13 14:50 120 13 5.4 3.0
2019-Dec-13 14:20 120 13 5.4 3.0
2019-Dec-13 13:50 120 14 5.4 3.0
2019-Dec-13 13:20 110 14 5.4 3.0
2019-Dec-13 12:50 110 13 5.4 4.0
2019-Dec-13 12:20 110 14 5.4 3.0
2019-Dec-13 11:50 120 13 5.4 4.0
2019-Dec-13 11:20 120 14 5.4 3.0
2019-Dec-13 10:50 110 15 5.4 3.0
2019-Dec-13 10:20 110 13 5.4 3.0
2019-Dec-13 10:19 110 13 5.4 3.0
2019-Dec-13 09:50 120 14 5.4 3.0
2019-Dec-13 09:20 120 18 5.4 3.0
2019-Dec-13 08:20 120 13 gusting 22 5.4 2.0
2019-Dec-13 07:50 130 14 5.4 2.0
2019-Dec-13 07:20 120 11 5.4 2.0
2019-Dec-13 06:50 120 14 5.4 2.0
2019-Dec-13 06:20 130 14 5.4 2.0
2019-Dec-13 05:50 130 13 5.4 2.0
2019-Dec-13 05:20 130 15 5.4 2.0
2019-Dec-13 04:50 130 15 gusting 27 5.4 3.0
2019-Dec-13 04:48 130 14 gusting 27 5.4 2.0
2019-Dec-13 04:20 130 15 5.4 2.0
2019-Dec-13 03:50 130 14 5.4 2.0
2019-Dec-13 03:20 130 14 gusting 25 5.4 2.0
2019-Dec-13 02:50 130 13 5.4 2.0
2019-Dec-13 02:20 130 13 5.4 2.0
2019-Dec-13 01:50 130 13 5.4 2.0
2019-Dec-13 01:20 130 13 5.4 2.0
2019-Dec-13 00:50 140 13 3.8 2.0
2019-Dec-13 00:20 130 12 2.7 2.0 Mist.
2019-Dec-12 23:50 130 8 2.7 1.0 Mist.
2019-Dec-12 23:20 140 9 2.2 2.0 Mist.
2019-Dec-12 22:50 150 11 1.9 2.0 Mist.
2019-Dec-12 22:20 140 9 1.9 2.0 Mist.
2019-Dec-12 21:50 140 8 1.9 1.0 Mist.
2019-Dec-12 21:20 140 8 1.9 1.0 Mist.
2019-Dec-12 20:50 140 6 2.2 1.0 Mist.
2019-Dec-12 20:20 150 6 2.7 1.0 Mist.
2019-Dec-12 19:50 160 7 2.7 2.0 Mist.
2019-Dec-12 19:20 160 7 2.7 2.0 Mist.
2019-Dec-12 18:50 170 7 3.8 2.0
2019-Dec-12 18:20 170 8 3.8 2.0
2019-Dec-12 17:50 170 7 5.4 3.0
2019-Dec-12 17:20 170 8 5.4 3.0
2019-Dec-12 16:50 190 8 5.4 4.0
2019-Dec-12 16:20 200 6 5.4 4.0
2019-Dec-12 15:50 190 8 5.4 4.0
2019-Dec-12 15:20 190 8 5.4 4.0
2019-Dec-12 14:50 190 8 5.4 4.0
2019-Dec-12 14:20 200 7 5.4 4.0
2019-Dec-12 13:50 200 7 5.4 5.0
2019-Dec-12 13:20 210 7 5.4 5.0
2019-Dec-12 12:50 220 9 gusting 20 5.4 5.0 Light rain.
2019-Dec-12 12:20 210 11 5.4 5.0